Location: Gilevgi
(36.8751°N, 30.0581°E)
Time: 18:47:40
(UTC+00:00)

COSMO-SKYMED 1 - Pass Details

Date: 11 December 2025
Orbit: 578 x 580 km, 97.9° (Epoch: 15 January)

Event Time Altitude Azimuth Distance (km) Brightness Sun altitude
Exits shadow 16:15:38 21° 19° (NNE) 1,326 3.9 -17.9°
Maximum altitude 16:18:19 74° 101° (E) 605 2.3 -18.4°
Drops below altitude 10° 16:22:24 10° 187° (S) 1,883 5.3 -19.2°
Sets 16:24:32 0° 189° (S) 2,777 6.2 -19.6°
